Find Starlink 2568

NORAD ID: 48406 Int'l Des: 2021-038 Owner: SPXS Country: US Constellation: starlink operational
LEOCIRCULAR

Live Position

Loading 3D Globe...

About Starlink 2568

Description loading...

Upcoming Passes

Passes for default location (London). Set your location on the main map for personalized predictions.

Altitude History

Loading altitude history...

Two-Line Element Set

1 48406U 21038BF 26106.85173902 .00000663 00000-0 34500-4 0 9997
2 48406 53.1585 158.2936 0001162 66.4859 293.6263 15.30190284273245
Epoch: Apr 16, 2026 • Age: 16 hours

Current Status

Altitude 479.5 km
Velocity 7.63 km/s
Sub-Earth Point 45.61°N, 109.45°W
Launch Date May 4, 2021
Age 4.9 years
Type internet

Technical Details

Classification Payload
Mass 260.00 kg
Dry Mass 248.00 kg
Total Mass 260.00 kg
Length 0.20 m
Diameter 2.80 m
Span 9.00 m
Shape Box + pan
Manufacturer SPXS
Bus Type Starlink
Phase Status In Orbit
Owner/State SPXS/US

Most Searched